Regional Weather Roundup
Issued by NWS Memphis, TN

Home | Current Version | Previous Version | Text Only | Print | Product List | Glossary On
Versions: 1 2 3 4 5 6 7 8 9 10 11 12 13 14 15 16 17 18 19 20 21 22 23 24 25 26 27 28 29 30 31 32 33 34 35 36 37 38 39 40 41 42 43 44 45 46 47 48 49 50
000
ASUS44 KMEG 040110
RWRMEG
MEMPHIS CWA HOURLY WEATHER ROUNDUP
NATIONAL WEATHER SERVICE MEMPHIS TN
800 PM CDT MON AUG 03 2015

...WEST TENNESSEE...

CITY           SKY/WX    TMP DP  RH WIND       PRES   REMARKS
MEMPHIS INTL   MOCLDY    88  68  51 SW3       29.92R HX  91
NWS MEMPHIS      N/A     86 N/A N/A MISG        N/A
JACKSON        PTCLDY    84  74  71 SW3       29.92S HX  91
LEXINGTON      CLEAR     82  75  78 CALM      29.92S
DYERSBURG        N/A    N/A N/A N/A MISG        N/A


...EASTERN ARKANSAS...

CITY           SKY/WX    TMP DP  RH WIND       PRES   REMARKS
JONESBORO      MOCLDY    87  71  58 S5        29.90R HX  93
WEST MEMPHIS   MOCLDY    85  73  67 SW5       29.90R HX  91
BATESVILLE     MOCLDY    82  73  74 CALM      29.92R
NEWPORT        MOCLDY    88  74  63 S3        29.91S HX  96
WALNUT RIDGE   PTCLDY    90  66  45 W5        29.90R HX  92
BLYTHEVILLE    PTCLDY    87  73  62 SW3       29.90S HX  94
SEARCY         CLOUDY    83  74  74 CALM      29.92R
STUTTGART      MOCLDY    91  66  43 SE5       29.92R HX  94
PINE BLUFF     PTCLDY    84  74  71 SE6       29.91S HX  91
MONTICELLO     PTCLDY    87  73  62 CALM      29.91S HX  94


...NORTH MISSISSIPPI...

CITY           SKY/WX    TMP DP  RH WIND       PRES   REMARKS
TUPELO         PTCLDY    86  71  60 CALM      29.91S HX  91
OLIVE BRANCH   MOCLDY    88  68  51 CALM      29.92R HX  91
CORINTH        PTCLDY    82  73  74 W5        29.92R
GREENWOOD      PTCLDY    82  71  69 CALM      29.90S
COLUMBUS       PTCLDY    85  70  59 N7        29.90S HX  90
STARKVILLE     FAIR      79  72  78 CALM      29.91S
GOLDEN TRIANGL PTCLDY    86  64  48 NW5       29.90S


...SOUTHEAST MISSOURI...

CITY           SKY/WX    TMP DP  RH WIND       PRES   REMARKS
WEST PLAINS    PTCLDY    84  70  62 CALM      29.97R
POPLAR BLUFF   CLEAR     84  78  82 CALM      29.89R HX  95
CAPE GIRARDEAU CLEAR     82  76  81 S3        29.89S


...NORTHWEST ALABAMA...

CITY           SKY/WX    TMP DP  RH WIND       PRES   REMARKS
MUSCLE SHOALS  MOCLDY    84  71  65 CALM      29.94R


...MIDDLE TENNESSEE...

CITY           SKY/WX    TMP DP  RH WIND       PRES   REMARKS
NASHVILLE      MOCLDY    88  66  48 W6        29.92S HX  90
CLARKSVILLE    CLEAR     85  72  65 CALM      29.91S HX  91


...WESTERN KENTUCKY...

CITY           SKY/WX    TMP DP  RH WIND       PRES   REMARKS
PADUCAH        CLEAR     83  74  74 CALM      29.89R
FORT CAMPBELL  CLEAR     83  74  72 SW5       29.91S HX  90


...CENTRAL ARKANSAS...

CITY           SKY/WX    TMP DP  RH WIND       PRES   REMARKS
LITTLE ROCK    CLOUDY    88  67  49 S5        29.91R HX  91


SKY/WX REPORTED AS FAIR MEANS FEW OR NO CLOUDS BELOW
12 THOUSAND FEET.




USA.gov is the U.S. government's official web portal to all federal, state and local government web resources and services.